Location: Kapuskasing
(49.3803°N, 82.4001°W)
Time: 14:40:53
(UTC-05:00)

RS-44 - Pass Details

Date: 18 December 2025
Orbit: 1174 x 1511 km, 82.5° (Epoch: 21 January)

Event Time Altitude Azimuth Distance (km) Brightness Sun altitude
Exits shadow 01:27:43 10° 15° (NNE) 3,565 ? -61.3°
Drops below altitude 10° 01:27:50 10° 15° (NNE) 3,605 ? -61.3°
Sets 01:30:37 0° 12° (NNE) 4,531 ? -61.1°
